Regional Weather Roundup
Issued by NWS

Home | Current Version | Previous Version | Text Only | Print | Product List | Glossary Off
Versions: 1 2 3 4 5 6 7 8 9 10 11 12 13 14 15 16 17 18 19 20 21 22 23 24 25 26 27 28 29 30 31 32 33 34 35 36 37 38 39 40 41 42 43 44 45 46 47 48 49 50

000
ASUS43 KTOP 050359
RWRKS

WEATHER ROUNDUP FOR KANSAS
NATIONAL WEATHER SERVICE GOODLAND KS
1100 PM CDT SAT JUL 04 2015

NOTE:  "FAIR" INDICATES FEW OR NO CLOUDS BELOW 12,000 FEET WITH NO
SIGNIFICANT WEATHER AND/OR OBSTRUCTIONS TO VISIBILITY.

KSZ001>006-013>018-027>032-041>047-050500-
NORTHWEST KANSAS

CITY           SKY/WX    TMP DP  RH WIND       PRES   REMARKS
GOODLAND       MOCLDY    78  62  57 SE18G29   29.93R
HAYS           MOCLDY    79  63  57 SE12      29.91S
HILL CITY      MOCLDY    81  63  54 SE7       29.90R
RUSSELL        MOCLDY    77  64  64 SE14      29.90R
$$

KSZ061>065-074>080-084>089-050500-
SOUTHWEST KANSAS

CITY           SKY/WX    TMP DP  RH WIND       PRES   REMARKS
DODGE CITY     MOCLDY    77  62  59 S15       29.94R
ELKHART          N/A     80  58  46 S10         N/A
GARDEN CITY    CLOUDY    78  64  61 S14       29.92R
GREAT BEND     MOCLDY    77  64  65 SE9       29.93R
LIBERAL        CLEAR     77  64  65 SE12      29.95R
$$

KSZ066>073-081>083-090>101-050500-
SOUTHEAST KANSAS

CITY           SKY/WX    TMP DP  RH WIND       PRES   REMARKS
CHANUTE        CLEAR     75  68  78 E8        29.98R
COFFEYVILLE    CLEAR     76  68  76 SE6       29.96R
HUTCHINSON     PTCLDY    78  65  63 SE9       29.94R
MEDICINE LODGE   N/A     80  65  59 S6        29.93R
NEWTON         CLEAR     75  61  60 SE9       29.98R
PARSONS        CLEAR     76  69  79 CALM      29.98R
WICHITA INTL   PTCLDY    80  65  59 SE10      29.94R HAZE
WICHITA JABRA  CLEAR     77  65  66 SE10      29.95R
WINFIELD       PTCLDY    78  66  66 SE9       29.97R
$$

KSZ007>012-019>026-033>040-048>060-102>105-050500-
NORTHEAST KANSAS

CITY           SKY/WX    TMP DP  RH WIND       PRES   REMARKS
CONCORDIA      PTCLDY    74  63  68 SE12      29.93R
EMPORIA        CLEAR     73  65  75 SE9       29.97R
LAWRENCE       CLEAR     68  64  87 E6        29.98R FOG
MANHATTAN      CLEAR     74  65  73 SE6       29.94R
OLATHE IND     CLEAR     71  64  78 E5        30.00R
OLATHE EXE     CLEAR     71  63  75 SE3       29.99R HAZE
SALINA         CLEAR     79  62  56 SE9       29.92R
TOPEKA BILLARD CLEAR     72  65  78 E5        29.97R HAZE
TOPEKA FORBES  CLEAR     73  65  75 SE7       29.97R
$$



USA.gov is the U.S. government's official web portal to all federal, state and local government web resources and services.